Weather History for Guatemala Aeropuertola Aurora, Guatemala

Change the Weather History Date:

Saturday, January 18, 2014

  Actual Average Record
Temperature  
Mean Temperature 57 °F -  
Max Temperature 68 °F 73 °F - ()
Min Temperature 46 °F 55 °F - ()
Degree Days  
Heating Degree Days 8    
Growing Degree Days 7 (Base 50)    
Moisture  
Dew Point 51 °F    
Average Humidity 75    
Maximum Humidity 94    
Minimum Humidity 49    
Precipitation  
Precipitation 0.00 in - - ()
Sea Level Pressure  
Sea Level Pressure 30.31 in    
Wind  
Wind Speed 13 mph ()    
Max Wind Speed 21 mph    
Max Gust Speed -    
Visibility 6.2 miles    
Events      
T = Trace of Precipitation, MM = Missing Value Source: Averaged Metar Reports

Daily Weather History Graph

Daily Weather History Graph

Search for Another Location

Airport:

Trip Planner

Search our weather history database for the weather conditions in past years. The results will help you decide how hot, cold, wet, or windy it might be!

Date:

Astronomy

Jan. 18, 2014 Rise Set
Actual Time 6:31 AM CST 5:54 PM CST
Civil Twilight 6:08 AM CST 6:16 PM CST
Nautical Twilight 5:42 AM CST 6:43 PM CST
Astronomical Twilight 5:16 AM CST 7:09 PM CST
Moon 8:04 PM CST (1/18) 7:59 AM CST (1/18)
Length of Visible Light 12h 08m
Length of Day
11h 23m
Waning Gibbous, 94% of the Moon is Illuminated
Jan 18
Waning Gibbous
Jan 23
Last Quarter
Jan 30
New
Feb 6
First Quarter
Feb 14
Full

Hourly Weather History & Observations

Time (CST) Temp. Dew Point Humidity Pressure Visibility Wind Dir Wind Speed Gust Speed Precip Events Conditions
12:00 AM 55.4 °F 51.8 °F 88% 30.36 in 6.2 mi North 11.5 mph - N/A   Mostly Cloudy
1:00 AM 55.4 °F 51.8 °F 88% 30.36 in 6.2 mi North 11.5 mph - N/A   Mostly Cloudy
2:00 AM 55.4 °F 51.8 °F 88% 30.33 in 6.2 mi North 13.8 mph - N/A   Mostly Cloudy
3:00 AM 53.6 °F 50.0 °F 88% 30.33 in 6.2 mi North 6.9 mph - N/A   Mostly Cloudy
4:00 AM 53.6 °F 50.0 °F 88% 30.33 in 6.2 mi North 13.8 mph - N/A   Mostly Cloudy
5:00 AM 53.6 °F 50.0 °F 88% 30.33 in 6.2 mi North 11.5 mph - N/A   Scattered Clouds
6:00 AM 53 °F 49 °F 83% 30.09 in 25 mi North 13.8 mph - -  
6:00 AM 51.8 °F 50.0 °F 94% 30.33 in - North 13.8 mph - N/A   Clear
7:00 AM 51.8 °F 50.0 °F 94% 30.33 in 6.2 mi North 16.1 mph - N/A   Partly Cloudy
8:00 AM 55.4 °F 50.0 °F 82% 30.36 in 6.2 mi NNE 16.1 mph - N/A   Partly Cloudy
9:00 AM 55.4 °F 50.0 °F 82% 30.39 in 6.2 mi NNE 13.8 mph - N/A   Scattered Clouds
10:00 AM 60.8 °F 51.8 °F 72% 30.39 in 6.2 mi NNE 18.4 mph - N/A   Scattered Clouds
11:00 AM 62.6 °F 50.0 °F 63% 30.36 in 6.2 mi North 20.7 mph - N/A   Scattered Clouds
12:00 PM 65 °F 50 °F 49% 30.09 in 25 mi North 20.7 mph - -   Partly Cloudy
12:00 PM 64.4 °F 50.0 °F 59% 30.33 in 6.2 mi North 20.7 mph - N/A   Scattered Clouds
1:00 PM 68.0 °F 51.8 °F 56% 30.30 in 6.2 mi North 18.4 mph - N/A   Partly Cloudy
2:00 PM 66.2 °F 51.8 °F 60% 30.30 in 6.2 mi North 18.4 mph - N/A   Scattered Clouds
3:00 PM 68.0 °F 51.8 °F 56% 30.27 in 6.2 mi North 20.7 mph - N/A   Partly Cloudy
4:00 PM 66.2 °F 51.8 °F 60% 30.27 in 6.2 mi North 16.1 mph - N/A   Partly Cloudy
5:00 PM 64.4 °F 51.8 °F 64% 30.27 in 6.2 mi North 13.8 mph - N/A   Partly Cloudy
6:00 PM 62.6 °F 51.8 °F 68% 30.30 in 6.2 mi North 16.1 mph - N/A   Scattered Clouds
7:00 PM 60.8 °F 51.8 °F 72% 30.33 in 6.2 mi NNE 18.4 mph - N/A   Mostly Cloudy
8:00 PM 59.0 °F 51.8 °F 77% 30.36 in 6.2 mi NNE 16.1 mph - N/A   Mostly Cloudy
9:00 PM 59.0 °F 51.8 °F 77% 30.36 in 6.2 mi North 16.1 mph - N/A   Mostly Cloudy
10:00 PM 59.0 °F 51.8 °F 77% 30.36 in 6.2 mi North 13.8 mph - N/A   Mostly Cloudy
11:00 PM 57.2 °F 51.8 °F 82% 30.36 in 6.2 mi North 18.4 mph - N/A   Mostly Cloudy